K2RMB Weather Reports


time (UTC)temp
F
wind
direction
speed
knots
gust
knots
rain 1hr
in
rain 24hr
in
rain mn
in
humidity
%
barometer
mb
20260510150228 59 48 0.0 0.0 0.00 0.00 0.00 74 1012.9
20260510145724 59 48 0.0 0.0 0.00 0.00 0.00 72 1013.3
20260510145220 59 48 1.7 1.7 0.00 0.00 0.00 72 1013.3
20260510144716 60 48 1.7 1.7 0.00 0.00 0.00 71 1012.9
20260510144214 60 48 0.0 0.0 0.00 0.00 0.00 71 1012.9
20260510143708 60 48 0.0 0.0 0.00 0.00 0.00 72 1012.9
20260510143205 60 48 0.0 0.0 0.00 0.00 0.00 77 1012.9
20260510142701 60 48 0.0 0.0 0.00 0.00 0.00 69 1012.9
20260510142158 60 48 1.7 1.7 0.00 0.00 0.00 70 1012.9
20260510141655 59 48 0.0 0.0 0.00 0.00 0.00 72 1012.9
20260510141154 60 42 0.0 0.0 0.00 0.00 0.00 73 1012.9
20260510140649 60 42 1.7 1.7 0.00 0.00 0.00 70 1013.3
20260510140149 60 48 1.7 1.7 0.00 0.00 0.00 74 1012.9
20260510135644 60 48 1.7 1.7 0.00 0.00 0.00 69 1012.9
20260510135140 60 48 0.0 0.0 0.00 0.00 0.00 70 1012.5
20260510134638 60 48 1.7 1.7 0.00 0.00 0.00 72 1012.5
20260510134135 59 48 0.0 0.0 0.00 0.00 0.00 72 1012.5
20260510133631 58 48 3.5 3.5 0.00 0.00 0.00 75 1012.5
20260510133126 58 48 0.0 0.0 0.00 0.00 0.00 75 1012.5
20260510132623 58 48 0.0 0.0 0.00 0.00 0.00 74 1012.5
20260510132121 58 48 0.9 0.9 0.00 0.00 0.00 75 1012.5
20260510131618 57 48 0.0 0.0 0.00 0.00 0.00 78 1012.9
20260510131115 57 48 1.7 1.7 0.00 0.00 0.00 76 1012.9
20260510130611 57 48 0.0 0.0 0.00 0.00 0.00 76 1012.9
20260510130109 57 48 0.0 0.0 0.00 0.00 0.00 77 1012.9
20260510125605 58 48 0.0 0.0 0.00 0.00 0.00 74 1012.5
20260510125101 59 48 0.0 0.0 0.00 0.00 0.00 70 1012.5
20260510124558 58 48 4.3 4.3 0.00 0.00 0.00 72 1012.5
20260510124055 58 48 0.9 0.9 0.00 0.00 0.00 74 1012.5
20260510123550 56 48 0.0 0.0 0.00 0.00 0.00 77 1012.5
20260510123047 57 48 1.7 1.7 0.00 0.00 0.00 76 1012.5
20260510122543 56 48 0.0 0.0 0.00 0.00 0.00 79 1012.5
20260510122039 55 48 0.0 0.0 0.00 0.00 0.00 81 1012.1
20260510121536 55 48 0.0 0.0 0.00 0.00 0.00 82 1012.5
20260510121033 55 48 0.0 0.0 0.00 0.00 0.00 83 1012.5
20260510120531 55 48 0.0 0.0 0.00 0.00 0.00 81 1012.5
20260510120026 54 48 0.0 0.0 0.00 0.00 0.00 81 1012.5
20260510115523 54 48 1.7 1.7 0.00 0.00 0.00 83 1012.5
20260510115020 54 54 3.5 3.5 0.00 0.00 0.00 82 1012.5
20260510114516 53 54 0.0 0.0 0.00 0.00 0.00 83 1012.5
20260510114012 53 54 0.0 0.0 0.00 0.00 0.00 86 1012.5
20260510113508 52 54 0.0 0.0 0.00 0.00 0.00 86 1012.5
20260510113006 52 54 1.7 1.7 0.00 0.00 0.00 87 1012.5
20260510112502 51 54 1.7 1.7 0.00 0.00 0.00 88 1012.5
20260510111958 51 54 1.7 1.7 0.00 0.00 0.00 89 1012.5
20260510111454 51 54 1.7 1.7 0.00 0.00 0.00 89 1012.5
20260510110951 51 54 0.0 0.0 0.00 0.00 0.00 90 1012.1
20260510110447 51 54 0.0 0.0 0.00 0.00 0.00 90 1012.5
20260510105943 50 54 1.7 1.7 0.00 0.00 0.00 90 1012.1
20260510105438 50 54 0.0 0.0 0.00 0.00 0.00 91 1012.1
20260510104934 50 54 0.0 0.0 0.00 0.00 0.00 91 1012.1
20260510104432 50 54 0.0 0.0 0.00 0.00 0.00 91 1011.8
20260510103928 50 54 0.0 0.0 0.00 0.00 0.00 91 1011.8
20260510103426 50 54 0.0 0.0 0.00 0.00 0.00 91 1011.8
20260510102925 50 54 0.0 0.0 0.00 0.00 0.00 92 1011.5
20260510102422 50 54 0.0 0.0 0.00 0.00 0.00 92 1011.5
20260510101919 50 54 0.0 0.0 0.00 0.00 0.00 92 1011.5
20260510101417 49 54 0.0 0.0 0.00 0.00 0.00 92 1011.5
20260510100914 49 54 0.0 0.0 0.00 0.00 0.00 92 1011.5
20260510100411 49 54 0.0 0.0 0.00 0.00 0.00 92 1011.5
20260510095907 49 54 0.0 0.0 0.00 0.00 0.00 92 1011.1
20260510095402 49 54 0.0 0.0 0.00 0.00 0.00 92 1011.5
20260510094902 49 54 0.0 0.0 0.00 0.00 0.00 93 1011.1
20260510094357 49 54 0.0 0.0 0.00 0.00 0.00 93 1011.1
20260510093854 49 54 0.0 0.0 0.00 0.00 0.00 92 1011.1
20260510093349 49 54 0.0 0.0 0.00 0.00 0.00 92 1010.8
20260510092846 49 54 0.0 0.0 0.00 0.00 0.00 92 1010.8
20260510092342 49 54 0.0 0.0 0.00 0.00 0.00 92 1010.8
20260510091838 49 54 0.0 0.0 0.00 0.00 0.00 92 1010.8
20260510091335 49 54 1.7 1.7 0.00 0.00 0.00 92 1010.8
20260510090832 49 54 0.0 0.0 0.00 0.00 0.00 92 1010.8
20260510090328 49 54 0.0 0.0 0.00 0.00 0.00 92 1010.8
20260510085824 49 54 0.0 0.0 0.00 0.00 0.00 92 1011.1
20260510085324 50 54 0.0 0.0 0.00 0.00 0.00 92 1010.8
20260510084820 50 54 0.0 0.0 0.00 0.00 0.00 92 1010.8
20260510084317 49 54 0.0 0.0 0.00 0.00 0.00 92 1010.8
20260510083814 49 54 0.0 0.0 0.00 0.00 0.00 92 1010.8
20260510083311 49 54 0.0 0.0 0.00 0.00 0.00 93 1010.8
20260510082806 49 54 0.0 0.0 0.00 0.00 0.00 92 1010.8
20260510082306 50 54 0.0 0.0 0.00 0.00 0.00 92 1010.4
20260510081802 50 54 0.0 0.0 0.00 0.00 0.00 92 1010.8
20260510081258 50 54 0.0 0.0 0.00 0.00 0.00 92 1011.1
20260510080754 50 54 0.0 0.0 0.00 0.00 0.00 91 1011.5
20260510080249 50 54 0.0 0.0 0.00 0.00 0.00 91 1011.5
20260510075747 50 54 0.0 0.0 0.00 0.00 0.00 92 1011.5
20260510075244 50 54 0.0 0.0 0.00 0.00 0.00 92 1011.8
20260510074741 50 54 0.0 0.0 0.00 0.00 0.00 91 1011.8
20260510074238 50 54 0.0 0.0 0.00 0.00 0.00 91 1011.8
20260510073733 51 54 0.0 0.0 0.00 0.00 0.00 90 1011.5
20260510073230 50 54 0.0 0.0 0.00 0.00 0.00 90 1011.8
20260510072725 50 54 0.0 0.0 0.00 0.00 0.00 91 1011.8
20260510072222 50 54 0.0 0.0 0.00 0.00 0.00 90 1011.8
20260510071719 50 54 0.0 0.0 0.00 0.00 0.00 90 1011.5
20260510071216 50 54 0.0 0.0 0.00 0.00 0.00 90 1011.8
20260510070714 50 54 0.0 0.0 0.00 0.00 0.00 90 1011.5
20260510070211 50 54 0.0 0.0 0.00 0.00 0.00 89 1011.1
20260510065706 50 54 1.7 1.7 0.00 0.00 0.00 90 1011.1
20260510065202 50 54 0.0 0.0 0.00 0.00 0.00 90 1011.1
20260510064659 50 54 0.0 0.0 0.00 0.00 0.00 90 1011.1
20260510064156 51 54 0.0 0.0 0.00 0.00 0.00 89 1011.1
20260510063653 51 54 0.0 0.0 0.00 0.00 0.00 88 1010.8
20260510063149 50 54 0.0 0.0 0.00 0.00 0.00 89 1010.8
20260510062646 50 54 0.0 0.0 0.00 0.00 0.00 89 1010.8
20260510062142 51 54 0.0 0.0 0.00 0.00 0.00 89 1010.8
20260510061637 51 54 0.0 0.0 0.00 0.00 0.00 88 1010.8
20260510061135 51 54 0.0 0.0 0.00 0.00 0.00 89 1010.8
20260510060631 51 54 0.0 0.0 0.00 0.00 0.00 89 1011.1
20260510060127 51 54 0.0 0.0 0.00 0.00 0.00 88 1011.5
20260510055624 51 54 1.7 1.7 0.00 0.00 0.00 89 1011.5
20260510055122 50 54 0.0 0.0 0.00 0.00 0.00 89 1011.1
20260510054617 50 54 0.0 0.0 0.00 0.00 0.00 89 1011.1
20260510054113 50 54 0.0 0.0 0.00 0.00 0.00 89 1011.1
20260510053612 51 54 0.0 0.0 0.00 0.00 0.00 88 1011.1
20260510053109 50 54 0.0 0.0 0.00 0.00 0.00 88 1011.1
20260510052605 50 54 0.0 0.0 0.00 0.00 0.00 89 1011.1
20260510052102 50 54 0.0 0.0 0.00 0.00 0.00 89 1011.1
20260510051557 50 54 1.7 1.7 0.00 0.00 0.00 89 1011.5
20260510051054 50 54 0.0 0.0 0.00 0.00 0.00 89 1011.5
20260510050551 50 54 0.0 0.0 0.00 0.00 0.00 89 1011.5
20260510050049 50 54 0.0 0.0 0.00 0.00 0.00 89 1011.1
20260510045546 50 54 0.0 0.0 0.00 0.00 0.00 90 1011.5
20260510045042 49 54 2.6 2.6 0.00 0.00 0.00 90 1011.5
20260510044538 49 54 0.0 0.0 0.00 0.00 0.00 91 1011.5
20260510044036 49 54 0.0 0.0 0.00 0.00 0.00 91 1011.1
20260510043531 49 54 0.0 0.0 0.00 0.00 0.00 91 1011.1
20260510043027 49 54 0.0 0.0 0.00 0.00 0.00 91 1011.5
20260510042521 49 54 0.0 0.0 0.00 0.00 0.00 91 1011.1
20260510042021 49 54 0.0 0.0 0.00 0.00 0.00 91 1011.1
20260510041520 49 54 0.0 0.0 0.00 0.00 0.00 91 1011.5
20260510041017 49 54 0.0 0.0 0.00 0.00 0.00 91 1011.5
20260510040514 49 54 0.0 0.0 0.00 0.00 0.00 91 1011.5
20260510040009 49 54 0.0 0.0 0.00 0.00 0.00 91 1011.1
20260510035506 49 54 0.0 0.0 0.00 0.69 0.69 91 1010.8
20260510035005 49 54 0.0 0.0 0.00 0.69 0.69 91 1011.1
20260510034504 49 54 0.0 0.0 0.00 0.69 0.69 91 1011.1
20260510034000 49 54 0.0 0.0 0.00 0.69 0.69 92 1011.1
20260510033455 49 54 0.0 0.0 0.00 0.69 0.69 92 1011.1
20260510032953 49 54 0.0 0.0 0.00 0.69 0.69 92 1011.5
20260510032451 50 54 0.0 0.0 0.00 0.69 0.69 91 1011.8
20260510031951 49 54 0.0 0.0 0.00 0.69 0.69 91 1011.8
20260510031446 49 54 0.0 0.0 0.00 0.69 0.69 91 1011.8
20260510030942 49 54 0.0 0.0 0.00 0.69 0.69 92 1011.5
20260510030437 49 54 0.0 0.0 0.00 0.69 0.69 92 1011.8
20260510025936 49 54 0.0 0.0 0.00 0.69 0.69 92 1011.5
20260510025433 49 54 0.0 0.0 0.00 0.69 0.69 92 1011.5
20260510024930 49 54 0.0 0.0 0.00 0.69 0.69 91 1011.8
20260510024426 49 54 0.0 0.0 0.00 0.69 0.69 91 1011.5
20260510023922 49 54 0.0 0.0 0.00 0.69 0.69 91 1011.8
20260510023419 49 54 0.0 0.0 0.00 0.69 0.69 91 1011.5
20260510022916 49 54 0.0 0.0 0.00 0.69 0.69 91 1011.5
20260510022415 49 54 0.0 0.0 0.00 0.69 0.69 91 1011.5
20260510021914 49 54 0.0 0.0 0.00 0.69 0.69 90 1011.5
20260510021413 49 54 2.6 2.6 0.00 0.69 0.69 91 1011.1
20260510020909 49 54 1.7 1.7 0.00 0.69 0.69 92 1011.1
20260510020404 49 54 0.0 0.0 0.00 0.69 0.69 92 1011.5
20260510015900 49 54 0.0 0.0 0.00 0.69 0.69 92 1011.5
20260510015355 49 54 0.0 0.0 0.00 0.69 0.69 92 1011.5
20260510014851 49 54 0.0 0.0 0.00 0.69 0.69 91 1011.8
20260510014349 50 54 0.0 0.0 0.00 0.69 0.69 91 1011.8
20260510013845 50 54 0.0 0.0 0.00 0.69 0.69 90 1012.1
20260510013340 49 54 0.0 0.0 0.00 0.69 0.69 90 1011.8
20260510012835 49 54 0.0 0.0 0.00 0.69 0.69 91 1011.8
20260510012335 49 54 0.0 0.0 0.00 0.69 0.69 91 1011.8
20260510011830 49 54 0.0 0.0 0.00 0.69 0.69 91 1011.5
20260510011326 49 54 0.0 0.0 0.00 0.69 0.69 92 1011.5
20260510010823 49 54 0.0 0.0 0.00 0.69 0.69 91 1011.8
20260510010320 49 54 0.0 0.0 0.00 0.69 0.69 91 1011.8
20260510005817 49 54 0.0 0.0 0.00 0.69 0.69 91 1011.8
20260510005313 50 54 0.0 0.0 0.00 0.69 0.69 90 1011.5
20260510004811 50 54 0.0 0.0 0.00 0.69 0.69 90 1011.1
20260510004308 50 54 0.0 0.0 0.00 0.69 0.69 90 1011.1
20260510003805 50 54 0.0 0.0 0.00 0.69 0.69 90 1011.1
20260510003302 50 54 0.0 0.0 0.00 0.69 0.69 88 1010.8
20260510002801 51 54 0.0 0.0 0.00 0.69 0.69 88 1010.8
20260510002259 51 54 0.0 0.0 0.00 0.69 0.69 87 1010.8
20260510001755 51 54 0.0 0.0 0.00 0.69 0.69 86 1010.8
20260510001253 51 54 0.0 0.0 0.00 0.69 0.69 87 1010.8
20260510000748 51 54 0.0 0.0 0.00 0.69 0.69 87 1010.4
20260510000248 51 54 0.0 0.0 0.00 0.69 0.69 88 1010.8
20260509235743 51 54 0.0 0.0 0.00 0.69 0.69 86 1010.8
20260509235240 52 54 0.0 0.0 0.00 0.69 0.69 86 1010.4
20260509234735 52 54 0.0 0.0 0.00 0.69 0.69 85 1010.4
20260509234233 52 54 2.6 3.5 0.00 0.69 0.69 83 1010.4
20260509233731 53 54 0.0 0.0 0.00 0.69 0.69 84 1010.1
20260509233228 53 54 0.0 0.0 0.00 0.69 0.69 84 1010.4
20260509232724 53 54 0.0 0.0 0.00 0.69 0.69 85 1010.1
20260509232221 53 54 0.0 0.0 0.00 0.69 0.69 84 1010.1
20260509231717 53 54 3.5 4.3 0.00 0.69 0.69 82 1010.1
20260509231215 53 54 0.0 0.0 0.00 0.69 0.69 84 1010.1
20260509230713 53 48 0.9 0.9 0.00 0.69 0.69 84 1010.1
20260509230209 53 48 3.5 3.5 0.00 0.69 0.69 84 1010.1
20260509225704 53 48 1.7 1.7 0.00 0.69 0.69 84 1010.1
20260509225200 53 48 0.0 0.0 0.00 0.69 0.69 86 1010.1
20260509224656 52 48 1.7 1.7 0.00 0.69 0.69 86 1010.1
20260509224154 52 48 0.0 0.0 0.00 0.69 0.69 88 1010.4
20260509223650 52 48 0.0 0.0 0.00 0.69 0.69 88 1010.4
20260509223147 52 48 3.5 3.5 0.00 0.69 0.69 87 1010.4
20260509222644 52 48 0.0 0.0 0.00 0.69 0.69 87 1010.1
20260509222139 51 42 0.0 0.0 0.00 0.69 0.69 87 1010.4
20260509221636 51 42 0.0 0.0 0.00 0.69 0.69 89 1010.4
20260509221132 51 42 1.7 1.7 0.00 0.69 0.69 89 1010.4
20260509220628 51 42 0.0 0.0 0.00 0.69 0.69 88 1010.4
20260509220124 51 42 0.0 0.0 0.00 0.69 0.69 88 1010.4
20260509215620 51 42 0.0 0.0 0.00 0.69 0.69 89 1010.4
20260509215117 51 42 0.0 0.0 0.00 0.69 0.69 88 1010.8
20260509214614 51 42 1.7 1.7 0.00 0.69 0.69 89 1010.4
20260509214111 51 42 0.0 0.0 0.00 0.69 0.69 89 1010.8
20260509213607 51 42 0.9 0.9 0.00 0.69 0.69 90 1010.8
20260509213104 50 36 0.0 0.0 0.00 0.69 0.69 90 1010.8
20260509212601 50 48 1.7 1.7 0.00 0.69 0.69 90 1010.8
20260509212058 50 48 0.0 0.0 0.00 0.69 0.69 91 1010.8
20260509211554 50 48 0.0 0.0 0.00 0.69 0.69 91 1010.8
20260509211050 50 48 1.7 1.7 0.00 0.69 0.69 91 1010.8
20260509210547 50 48 1.7 1.7 0.00 0.69 0.69 90 1010.8
20260509210044 50 48 1.7 1.7 0.00 0.69 0.69 91 1010.8
20260509205543 50 42 0.0 0.0 0.01 0.69 0.69 92 1011.1
20260509205039 50 42 0.0 0.0 0.01 0.69 0.69 92 1010.8
20260509204536 50 42 0.0 0.0 0.01 0.69 0.69 92 1011.1
20260509204032 49 42 0.0 0.0 0.01 0.69 0.69 92 1011.1
20260509203528 49 42 5.2 5.2 0.01 0.69 0.69 92 1011.5
20260509203027 49 42 0.0 0.0 0.01 0.69 0.69 92 1011.5
20260509202527 49 42 1.7 1.7 0.01 0.69 0.69 92 1011.5
20260509202022 49 42 0.0 0.0 0.01 0.69 0.69 92 1011.5
20260509201518 50 42 0.0 0.0 0.00 0.67 0.67 92 1011.5
20260509201016 49 42 0.0 0.0 0.00 0.67 0.67 92 1011.8
20260509200515 50 42 0.0 0.0 0.00 0.67 0.67 93 1011.5
20260509200013 49 42 0.0 0.0 0.00 0.67 0.67 93 1011.5
20260509195508 49 42 0.0 0.0 0.06 0.67 0.67 93 1011.8
20260509195007 49 42 0.0 0.0 0.06 0.67 0.67 93 1011.5
20260509194503 49 42 0.0 0.0 0.06 0.67 0.67 93 1011.8
20260509194000 49 42 0.0 0.0 0.06 0.67 0.67 93 1011.8
20260509193500 48 42 0.0 0.0 0.06 0.67 0.67 93 1011.8
20260509192957 48 42 0.0 0.0 0.04 0.66 0.66 93 1011.8
20260509192453 48 42 0.0 0.0 0.04 0.66 0.66 93 1011.8
20260509191948 48 42 0.0 0.0 0.03 0.64 0.64 93 1011.8
20260509191444 47 42 0.0 0.0 0.03 0.64 0.64 93 1011.8
20260509190940 48 42 0.0 0.0 0.01 0.62 0.62 93 1011.8
20260509190437 48 42 0.0 0.0 0.01 0.62 0.62 93 1011.8
20260509185935 48 42 0.0 0.0 0.11 0.61 0.61 93 1011.8
20260509185432 47 42 0.0 0.0 0.11 0.61 0.61 92 1011.8
20260509184928 47 42 0.0 0.0 0.09 0.59 0.59 92 1011.8
20260509184426 47 42 0.0 0.0 0.09 0.59 0.59 92 1012.1
20260509183922 47 42 0.0 0.0 0.07 0.58 0.58 92 1011.8
20260509183417 47 42 0.0 0.0 0.06 0.56 0.56 92 1012.1
20260509182914 47 42 1.7 1.7 0.06 0.56 0.56 92 1012.1
20260509182410 47 42 0.0 0.0 0.04 0.55 0.55 92 1012.1
20260509181908 47 42 0.0 0.0 0.03 0.53 0.53 92 1012.1
20260509181405 47 42 0.0 0.0 0.03 0.53 0.53 92 1012.1
20260509180902 47 42 0.0 0.0 0.01 0.51 0.51 92 1012.1
20260509180358 47 42 0.0 0.0 0.00 0.50 0.50 92 1012.1
20260509175855 47 42 1.7 1.7 0.09 0.50 0.50 92 1012.1
20260509175351 47 42 2.6 2.6 0.07 0.48 0.48 92 1012.1
20260509174847 46 42 1.7 1.7 0.06 0.47 0.47 92 1012.5
20260509174344 46 42 1.7 1.7 0.06 0.47 0.47 93 1012.1
20260509173839 46 42 2.6 2.6 0.04 0.45 0.45 93 1012.1
20260509173335 46 42 0.0 0.0 0.04 0.45 0.45 93 1012.5
20260509172831 46 42 0.0 0.0 0.03 0.44 0.44 93 1012.1
20260509172328 46 42 0.0 0.0 0.03 0.44 0.44 93 1012.5
20260509171824 46 42 0.0 0.0 0.01 0.42 0.42 93 1012.5
20260509171320 46 42 0.0 0.0 0.01 0.42 0.42 93 1012.5
20260509170816 46 42 0.0 0.0 0.01 0.42 0.42 93 1012.5
20260509170312 46 42 1.7 1.7 0.00 0.40 0.40 93 1012.5
20260509165812 46 42 0.0 0.0 0.09 0.40 0.40 93 1012.5
20260509165307 46 42 0.0 0.0 0.07 0.39 0.39 93 1012.5
20260509164803 46 42 0.0 0.0 0.07 0.39 0.39 93 1012.5
20260509164300 46 42 0.0 0.0 0.06 0.37 0.37 92 1012.5
20260509163756 46 42 0.0 0.0 0.06 0.37 0.37 92 1012.5
20260509163253 46 42 0.0 0.0 0.06 0.37 0.37 92 1012.9
20260509162752 46 42 1.7 1.7 0.04 0.36 0.36 91 1012.9
20260509162251 46 42 0.0 0.0 0.03 0.34 0.34 91 1012.9
20260509161747 46 48 2.6 2.6 0.03 0.34 0.34 91 1012.9
20260509161243 45 48 3.5 3.5 0.01 0.33 0.33 90 1012.9
20260509160738 45 48 0.0 0.0 0.00 0.31 0.31 90 1013.3
20260509160235 45 48 2.6 3.5 0.00 0.31 0.31 89 1013.3
20260509155730 44 48 0.0 0.0 0.12 0.31 0.31 89 1013.3
20260509155227 44 48 1.7 1.7 0.11 0.29 0.29 89 1013.3
20260509154723 44 48 1.7 1.7 0.09 0.28 0.28 90 1013.6
20260509154220 44 48 1.7 1.7 0.09 0.28 0.28 89 1013.6
20260509153718 44 48 0.9 0.9 0.07 0.26 0.26 89 1013.6
20260509153214 44 42 0.0 0.0 0.06 0.25 0.25 89 1013.6
20260509152710 44 48 4.3 5.2 0.06 0.25 0.25 90 1013.6
20260509152207 44 54 1.7 1.7 0.04 0.23 0.23 90 1013.6
20260509151704 44 54 0.0 0.0 0.03 0.22 0.22 90 1013.6
20260509151201 44 54 0.0 0.0 0.03 0.22 0.22 90 1013.6
20260509150658 44 54 0.0 0.0 0.01 0.20 0.20 90 1013.9